Find Starlink 37668

NORAD ID: 100432 Int'l Des: 2026-192 Owner: SPXS Country: US Constellation: starlink operational

Aktuelle Ansicht

3D-Globus wird geladen...

About Starlink 37668

Starlink 37668 (NORAD 100432) is a starlink constellation satellite launched Aug 21, 2026 by SPXS of US. with a mass of 575.00 kg.

Nächste Überflüge

Passes for default location (London). Set your location on the main map for personalized predictions.

Höhenverlauf

Loading altitude history...

Zweizeiliger Elementsatz

1 A0432U 26192AE 26248.28429564 .00163524 00000-0 85553-3 0 9991
2 A0432 53.1586 20.7701 0000788 63.9872 296.1232 15.79850362 3525
Epoch: 5. Sept. 2026 • Age: 8 hours

Aktueller Status

Höhe 330.4 km
Apogäum / Perigäum N/A
Geschwindigkeit 7.71 km/s
Subsatellitenpunkt 12.79°N, 173.02°W
Startdatum 21. Aug. 2026
Alter 14 days
Typ internet

Technische Details

Klassifizierung Payload
Masse 575.00 kg
Trockenmasse 530.00 kg
Gesamtmasse 575.00 kg
Länge 0.30 m
Durchmesser 4.10 m
Spannweite 29.00 m
Form Box + pan
Hersteller SPXS
Bus-Typ Starlink V2MO
Phasenstatus In Orbit
Besitzer/Staat SPXS/US

Most Searched